Precipitable_Water
0.94 0.86 0.91 0.73 0.44 0.44 0.40 0.45 0.57 0.52 0.43 0.40 0.63 0.72 0.68 0.75 0.65 0.53 1.26 1.37 1.24 1.21 1.40 1.50 1.46 1.41 1.30 1.18 1.12 1.13 1.16 1.27 1.34 1.35 1.32 1.27 1.18 1.15 1.12 1.07 1.06 1.07 1.05 0.98 0.96 0.96 0.97 0.97 1.01
0.92 0.87 0.85 0.69 0.43 0.39 0.40 0.46 0.50 0.52 0.51 0.45 0.52 0.74 0.73 0.77 1.04 1.11 1.17 1.40 1.31 1.23 1.43 1.52 1.48 1.42 1.30 1.17 1.09 1.06 1.06 1.15 1.25 1.26 1.22 1.16 1.14 1.10 1.07 1.06 1.05 1.03 0.98 0.97 0.95 0.94 0.94 0.96 1.04
0.86 0.88 0.71 0.61 0.51 0.41 0.42 0.47 0.51 0.60 0.53 0.46 0.52 0.67 0.78 0.83 1.15 1.23 1.38 1.46 1.38 1.29 1.41 1.52 1.50 1.41 1.32 1.26 1.12 1.02 1.03 1.10 1.16 1.16 1.12 1.11 1.09 1.06 1.04 1.03 1.01 0.99 0.98 0.97 0.94 0.90 0.88 0.91 1.00
0.79 0.76 0.72 0.56 0.51 0.54 0.48 0.53 0.56 0.61 0.62 0.56 0.65 0.58 0.75 0.97 1.04 1.31 1.55 1.47 1.39 1.27 1.37 1.49 1.47 1.44 1.36 1.30 1.17 1.02 0.97 0.99 1.09 1.10 1.09 1.08 1.05 0.99 0.99 0.98 0.98 0.99 0.98 0.95 0.89 0.84 0.82 0.83 0.86
0.70 0.67 0.55 0.52 0.51 0.59 0.61 0.56 0.59 0.58 0.62 0.62 0.71 0.67 0.72 0.97 1.30 1.42 1.45 1.48 1.22 1.23 1.39 1.49 1.48 1.42 1.37 1.32 1.22 1.04 0.98 0.97 0.99 1.05 1.08 1.06 1.00 0.96 0.95 0.96 0.98 0.98 0.96 0.93 0.88 0.83 0.81 0.81 0.85
0.44 0.52 0.45 0.44 0.49 0.56 0.63 0.64 0.61 0.59 0.63 0.63 0.66 0.62 0.64 0.98 1.17 1.32 1.44 1.44 1.40 1.21 1.31 1.42 1.45 1.44 1.35 1.30 1.24 1.07 0.99 0.97 0.97 1.07 1.05 1.01 0.94 0.92 0.95 0.97 0.98 0.97 0.94 0.90 0.87 0.86 0.85 0.85 0.86
0.36 0.34 0.31 0.37 0.40 0.46 0.55 0.65 0.60 0.60 0.61 0.60 0.64 0.60 0.65 0.72 1.07 1.20 1.27 1.37 1.37 1.38 1.38 1.42 1.42 1.41 1.37 1.32 1.24 1.11 1.02 0.98 0.97 1.03 1.03 0.97 0.90 0.94 0.98 0.99 0.99 0.98 0.93 0.89 0.88 0.87 0.87 0.86 0.87
0.34 0.32 0.28 0.29 0.28 0.28 0.41 0.54 0.60 0.60 0.62 0.66 0.65 0.61 0.62 0.74 1.05 1.17 1.22 1.25 1.29 1.37 1.41 1.41 1.44 1.41 1.35 1.38 1.27 1.16 1.09 1.00 0.97 1.01 1.00 0.95 0.96 0.99 0.99 0.99 0.98 0.97 0.93 0.92 0.92 0.90 0.90 0.90 0.88
0.35 0.25 0.20 0.22 0.22 0.23 0.31 0.34 0.52 0.61 0.59 0.64 0.65 0.65 0.71 0.82 1.09 1.13 1.10 1.13 1.16 1.28 1.37 1.42 1.39 1.44 1.39 1.35 1.35 1.27 1.20 1.11 1.03 1.02 1.00 0.97 0.98 1.03 1.02 1.00 0.97 0.97 0.94 0.94 0.95 0.94 0.93 0.92 0.95
0.26 0.21 0.20 0.26 0.26 0.24 0.28 0.29 0.33 0.44 0.50 0.57 0.61 0.61 0.69 0.85 0.93 1.06 1.01 0.99 1.06 1.10 1.21 1.33 1.41 1.35 1.40 1.35 1.33 1.34 1.30 1.26 1.19 1.12 1.04 1.00 1.00 1.03 1.03 1.02 1.00 0.98 0.94 0.93 0.95 0.95 0.94 0.94 0.96
0.25 0.20 0.24 0.24 0.27 0.26 0.23 0.25 0.27 0.29 0.37 0.50 0.54 0.54 0.61 0.77 0.89 1.02 1.12 1.03 0.99 1.20 1.30 1.32 1.35 1.42 1.37 1.29 1.33 1.32 1.33 1.30 1.29 1.23 1.13 1.06 1.05 1.06 1.05 1.01 0.99 1.00 1.01 0.96 0.95 0.95 0.95 1.00 1.06
0.23 0.25 0.26 0.26 0.26 0.24 0.21 0.24 0.22 0.24 0.27 0.46 0.52 0.54 0.56 0.60 0.77 0.82 0.95 1.10 1.16 1.25 1.33 1.43 1.43 1.41 1.42 1.40 1.27 1.27 1.29 1.30 1.29 1.31 1.28 1.14 1.08 1.07 1.06 1.02 1.00 1.00 0.99 0.94 0.93 0.93 1.11 1.18 1.26
0.24 0.25 0.26 0.27 0.25 0.23 0.22 0.20 0.19 0.17 0.23 0.35 0.44 0.48 0.48 0.54 0.70 0.81 0.84 0.99 1.17 1.18 1.37 1.47 1.53 1.47 1.43 1.45 1.42 1.30 1.25 1.28 1.30 1.31 1.33 1.29 1.15 1.09 1.09 1.05 1.04 1.05 1.05 0.98 0.94 1.05 1.19 1.29 1.35
0.26 0.25 0.25 0.26 0.26 0.25 0.22 0.21 0.21 0.19 0.24 0.24 0.36 0.42 0.46 0.49 0.57 0.73 0.83 0.93 1.02 1.10 1.17 1.36 1.47 1.55 1.56 1.51 1.47 1.41 1.37 1.31 1.32 1.32 1.30 1.31 1.24 1.20 1.12 1.13 1.12 1.09 1.06 1.02 1.01 1.10 1.21 1.30 1.39
0.25 0.21 0.24 0.25 0.26 0.25 0.26 0.19 0.18 0.23 0.24 0.22 0.24 0.38 0.46 0.51 0.55 0.64 0.76 0.86 0.93 1.01 1.13 1.21 1.33 1.52 1.53 1.54 1.53 1.51 1.45 1.44 1.32 1.30 1.34 1.33 1.31 1.21 1.19 1.13 1.08 1.10 1.08 1.09 1.20 1.24 1.30 1.30 1.42
0.19 0.20 0.16 0.22 0.24 0.25 0.24 0.14 0.21 0.26 0.25 0.23 0.24 0.30 0.42 0.49 0.58 0.62 0.71 0.83 0.94 1.00 1.03 1.11 1.30 1.34 1.33 1.31 1.37 1.51 1.74 1.64 1.46 1.39 1.35 1.35 1.35 1.33 1.25 1.19 1.14 1.15 1.06 1.08 1.12 1.22 1.23 1.31 1.31
0.14 0.10 0.12 0.14 0.20 0.21 0.21 0.17 0.21 0.26 0.26 0.24 0.24 0.25 0.30 0.40 0.45 0.58 0.65 0.71 0.84 0.91 0.96 1.01 1.12 1.17 1.23 1.25 1.28 1.33 1.48 1.54 1.57 1.45 1.36 1.35 1.39 1.36 1.34 1.32 1.20 1.25 1.11 1.08 1.15 1.20 1.25 1.23 1.28
0.10 0.11 0.14 0.14 0.17 0.19 0.17 0.17 0.22 0.25 0.25 0.24 0.25 0.25 0.26 0.29 0.39 0.46 0.54 0.64 0.70 0.81 0.92 0.94 1.02 1.07 1.21 1.31 1.36 1.38 1.46 1.52 1.48 1.39 1.36 1.29 1.29 1.32 1.30 1.33 1.31 1.24 1.11 1.03 1.08 1.16 1.26 1.37 1.33
0.18 0.17 0.16 0.18 0.21 0.19 0.17 0.15 0.18 0.23 0.24 0.23 0.24 0.25 0.26 0.26 0.30 0.40 0.45 0.52 0.59 0.62 0.75 0.86 0.93 1.01 1.09 1.14 1.17 1.24 1.18 1.36 1.43 1.44 1.35 1.39 1.30 1.20 1.19 1.24 1.30 1.37 1.22 1.05 1.11 1.27 1.33 1.41 1.35
0.21 0.19 0.18 0.21 0.23 0.21 0.20 0.16 0.19 0.21 0.21 0.22 0.23 0.25 0.26 0.27 0.27 0.29 0.35 0.47 0.51 0.53 0.58 0.72 0.82 0.97 0.99 1.03 1.15 1.29 1.30 1.31 1.33 1.41 1.43 1.55 1.44 1.43 1.37 1.27 1.12 1.16 1.24 1.26 1.27 1.27 1.37 1.47 1.42
0.21 0.20 0.20 0.20 0.23 0.24 0.21 0.15 0.17 0.20 0.22 0.23 0.23 0.24 0.26 0.28 0.27 0.28 0.30 0.37 0.48 0.52 0.55 0.64 0.75 0.89 0.99 1.04 1.13 1.12 1.25 1.32 1.29 1.43 1.51 1.53 1.47 1.44 1.47 1.57 1.47 1.35 1.35 1.31 1.51 1.48 1.45 1.36 1.40
0.19 0.25 0.26 0.24 0.22 0.17 0.23 0.11 0.16 0.20 0.21 0.21 0.20 0.24 0.25 0.27 0.30 0.31 0.32 0.37 0.42 0.43 0.54 0.64 0.75 0.87 0.96 1.03 1.02 0.97 0.92 0.89 1.15 1.29 1.39 1.35 1.47 1.54 1.60 1.54 1.49 1.57 1.73 1.70 1.73 1.70 1.49 1.40 1.29
0.25 0.31 0.29 0.28 0.25 0.23 0.22 0.18 0.15 0.20 0.18 0.20 0.23 0.24 0.28 0.30 0.31 0.32 0.34 0.34 0.38 0.53 0.55 0.67 0.83 0.93 1.01 1.05 1.07 1.05 1.05 1.13 1.20 1.28 1.37 1.47 1.50 1.55 1.55 1.65 1.78 1.77 1.77 1.69 1.83 1.82 1.39 1.38 1.31
0.38 0.33 0.31 0.29 0.27 0.18 0.22 0.22 0.15 0.17 0.21 0.23 0.25 0.29 0.30 0.33 0.36 0.36 0.36 0.38 0.39 0.47 0.59 0.68 0.76 0.83 0.93 0.97 1.01 0.99 0.97 0.99 0.99 1.06 1.09 1.21 1.34 1.54 1.57 1.58 1.60 1.75 1.81 1.87 1.65 1.63 1.57 1.45 1.38
0.38 0.30 0.20 0.18 0.17 0.15 0.26 0.24 0.22 0.21 0.29 0.30 0.31 0.31 0.36 0.38 0.38 0.36 0.36 0.36 0.38 0.41 0.51 0.64 0.71 0.69 0.75 0.75 0.75 0.73 0.69 0.72 0.76 0.84 0.93 1.05 1.17 1.20 1.37 1.43 1.43 1.58 1.70 1.69 1.90 1.66 1.60 1.55 1.45
0.32 0.30 0.21 0.14 0.13 0.15 0.25 0.17 0.18 0.31 0.38 0.40 0.39 0.40 0.41 0.40 0.40 0.39 0.40 0.37 0.37 0.41 0.46 0.56 0.64 0.65 0.66 0.67 0.64 0.65 0.63 0.60 0.59 0.61 0.66 0.75 0.87 1.11 1.30 1.32 1.33 1.44 1.59 1.64 1.68 1.55 1.54 1.53 1.46
0.28 0.20 0.32 0.24 0.26 0.22 0.22 0.24 0.27 0.36 0.40 0.40 0.40 0.45 0.44 0.43 0.44 0.45 0.47 0.44 0.43 0.45 0.47 0.55 0.62 0.66 0.65 0.63 0.62 0.61 0.60 0.59 0.58 0.62 0.66 0.66 0.69 0.74 0.83 1.01 1.10 1.28 1.37 1.47 1.56 1.47 1.44 1.44 1.36
0.28 0.36 0.24 0.30 0.17 0.15 0.21 0.24 0.26 0.36 0.38 0.43 0.45 0.48 0.51 0.52 0.50 0.53 0.54 0.53 0.53 0.55 0.56 0.63 0.72 0.65 0.62 0.63 0.61 0.58 0.56 0.54 0.53 0.55 0.53 0.53 0.56 0.58 0.59 0.66 0.78 0.93 1.06 1.15 1.27 1.25 1.30 1.31 1.31
0.24 0.24 0.30 0.31 0.27 0.21 0.20 0.25 0.45 0.46 0.50 0.48 0.48 0.51 0.52 0.53 0.54 0.56 0.60 0.60 0.56 0.55 0.60 0.74 0.72 0.67 0.65 0.62 0.59 0.54 0.52 0.52 0.50 0.46 0.47 0.49 0.53 0.56 0.56 0.58 0.59 0.62 0.69 0.80 0.86 0.91 0.98 0.99 0.98
0.28 0.26 0.30 0.21 0.18 0.24 0.23 0.19 0.37 0.46 0.51 0.49 0.50 0.52 0.54 0.55 0.58 0.59 0.61 0.63 0.62 0.62 0.67 0.70 0.72 0.69 0.65 0.64 0.59 0.53 0.52 0.52 0.49 0.48 0.48 0.51 0.49 0.53 0.56 0.60 0.62 0.63 0.63 0.66 0.69 0.72 0.79 0.77 0.74
Wind_Speed
19 17 16 14 14 13 14 15 14 13 13 14 14 14 13 12 12 11 9 15 15 15 15 14 13 12 12 11 11 11 12 13 13 13 12 12 12 12 12 12 12 11 10 10 9 9 9 9 9
20 19 17 16 15 15 15 16 13 13 15 15 15 14 13 12 12 11 11 15 16 16 15 15 14 13 13 12 12 12 12 13 13 13 13 13 12 12 12 12 11 10 9 9 8 8 8 8 9
22 20 19 18 18 18 15 15 14 14 13 13 14 14 14 14 13 15 14 15 16 17 16 16 15 14 13 13 12 12 12 13 13 13 13 13 13 12 12 11 10 9 8 7 7 6 6 7 7
23 22 21 21 23 20 18 14 13 13 14 12 15 15 15 14 14 15 17 16 17 18 17 17 17 16 14 14 13 13 13 13 14 14 13 13 13 13 12 10 9 8 7 6 5 5 5 5 6
26 24 24 24 25 22 20 20 15 15 15 14 14 15 14 14 13 14 16 17 18 19 19 19 18 17 16 15 14 14 14 14 14 14 14 14 13 13 12 10 9 7 6 5 4 4 3 4 4
25 26 25 27 26 24 22 21 19 17 16 15 13 15 15 16 16 17 17 16 18 17 19 20 20 19 18 17 16 15 15 15 16 15 14 14 14 13 12 10 8 7 6 4 3 2 1 3 4
26 25 28 28 27 27 26 23 22 20 18 18 18 19 19 18 19 18 18 18 19 19 19 20 20 21 21 20 18 17 17 17 16 16 15 15 15 14 12 11 9 7 6 4 3 1 1 2 4
25 25 27 28 27 30 27 26 24 22 24 21 20 19 20 19 23 22 21 20 20 20 21 21 21 22 22 22 21 20 19 18 18 17 17 17 16 15 13 12 10 9 7 5 4 3 3 3 5
24 24 27 27 26 26 22 24 27 26 28 25 23 23 25 23 24 24 23 23 22 22 22 22 23 23 23 24 24 23 22 21 20 19 18 18 17 16 15 13 12 10 9 7 6 5 5 5 6
23 25 26 25 25 25 24 26 27 28 31 29 27 24 24 26 28 27 27 27 26 26 25 25 25 25 25 25 26 25 25 24 23 22 21 20 19 18 17 15 14 12 10 9 8 8 7 8 8
22 25 25 24 24 25 24 27 28 30 35 31 28 27 24 25 29 30 30 29 29 28 28 27 27 27 28 28 28 28 28 27 26 25 24 23 22 20 19 18 16 14 13 11 10 10 10 10 10
22 24 24 25 27 27 27 28 30 32 37 32 33 31 29 29 32 31 32 31 31 31 30 29 28 29 29 30 31 31 31 30 29 28 27 26 24 23 22 20 19 17 15 14 13 12 11 11 10
22 23 25 25 25 26 27 28 30 36 33 35 35 34 33 32 34 34 34 33 32 31 32 33 33 32 31 31 32 33 34 34 33 31 31 29 27 26 25 23 22 20 18 16 15 14 13 13 12
20 21 22 22 23 23 24 26 26 26 29 32 35 36 34 35 35 34 33 34 35 34 33 33 33 34 34 34 33 34 34 36 37 35 34 33 31 29 27 25 24 23 21 19 18 17 16 15 15
20 21 22 22 22 23 23 26 28 26 27 31 34 36 35 35 35 37 36 35 34 34 33 32 32 33 34 34 34 35 36 36 37 38 37 35 34 32 31 29 28 27 25 23 21 19 19 19 18
18 19 19 20 20 23 22 29 24 25 27 30 31 34 34 35 34 36 36 35 36 35 34 33 32 32 33 33 33 35 36 33 37 39 39 39 37 35 34 32 30 28 28 26 25 23 22 21 21
16 18 18 20 21 22 24 27 26 26 28 31 32 34 36 37 37 37 37 37 37 36 35 34 34 34 33 33 34 35 36 36 36 39 41 41 40 39 38 35 34 32 31 29 27 26 25 24 24
16 17 18 20 21 23 28 32 30 30 29 32 32 34 37 40 42 42 40 40 39 39 37 35 34 34 34 34 34 34 36 37 38 39 40 42 42 42 40 40 38 36 33 33 31 29 29 28 27
16 17 19 21 24 23 26 31 31 30 30 32 33 34 36 40 44 44 43 42 43 41 40 38 37 35 34 33 33 33 35 36 37 38 40 40 42 43 43 42 42 41 38 36 34 32 30 28 27
15 17 20 21 23 22 26 30 29 28 30 33 32 33 35 36 39 42 44 44 44 44 44 42 40 38 36 35 34 34 34 36 37 38 38 39 41 42 45 44 43 43 41 40 39 36 32 29 28
16 16 19 21 21 22 24 30 28 29 31 32 33 32 33 33 34 38 40 42 45 45 46 45 44 42 40 37 35 34 34 34 36 37 38 38 36 39 42 43 43 44 44 43 42 38 35 32 29
17 18 21 22 21 23 21 35 30 28 32 33 35 35 33 32 31 33 35 36 39 41 42 44 44 43 42 40 38 36 34 34 35 37 38 39 39 37 38 41 44 43 40 41 44 42 41 40 36
19 19 22 23 26 26 24 27 28 25 30 33 32 33 35 33 33 35 36 37 38 37 37 37 38 39 39 39 38 37 36 35 34 35 37 37 39 39 40 38 41 42 44 47 47 41 40 41 41
19 21 23 23 23 29 28 26 40 34 30 30 29 31 32 35 35 37 38 38 37 38 38 38 38 37 38 37 37 37 37 36 36 36 37 38 38 39 38 39 40 41 42 40 37 36 35 39 41
18 20 23 23 21 29 23 26 36 30 24 26 27 28 30 32 35 37 40 41 41 39 39 39 38 37 37 36 35 34 34 34 35 35 35 37 38 38 38 38 38 40 42 42 34 37 36 35 36
21 19 20 24 26 33 28 29 31 22 26 25 25 24 25 27 31 36 40 42 43 41 40 40 39 38 38 36 35 34 34 33 33 34 34 35 37 38 39 39 39 38 36 38 38 37 36 35 35
19 19 21 22 25 25 23 26 29 20 16 18 18 19 18 20 22 27 34 38 40 42 42 42 39 38 37 36 34 34 33 34 34 35 35 35 34 34 34 36 37 37 36 36 36 36 35 35 34
18 18 18 18 19 19 17 18 17 15 14 13 12 15 16 17 16 16 19 26 32 37 40 40 38 37 36 34 33 33 33 33 33 34 34 33 33 32 32 32 32 33 34 34 34 34 34 34 34
16 16 16 16 16 15 16 14 12 13 14 16 16 16 18 19 17 14 13 16 20 25 31 36 36 35 35 33 32 32 30 30 29 29 29 30 30 31 31 31 31 30 30 31 31 31 31 32 31
15 15 14 12 16 16 17 22 18 15 17 16 18 18 18 18 19 19 16 15 16 18 23 31 34 35 33 31 31 31 29 27 27 27 27 28 28 29 29 30 30 31 30 30 30 31 31 32 33
Wind_Direction
245 246 238 231 224 219 225 227 228 241 243 240 243 233 231 233 224 233 229 199 194 191 187 186 183 182 178 174 168 160 156 157 157 156 153 149 144 141 138 133 127 121 114 106 99 91 84 76 70
242 240 234 228 222 223 226 226 225 237 246 250 236 233 232 234 229 230 207 200 197 193 194 193 189 184 182 178 174 169 164 163 162 161 158 154 150 147 144 139 133 126 119 110 103 93 84 77 70
239 236 231 225 224 222 224 220 227 241 246 242 237 233 233 232 233 223 214 203 201 199 198 197 192 188 184 184 180 176 173 170 167 165 163 159 157 153 148 144 138 132 123 115 106 96 86 77 67
236 235 232 227 227 229 226 223 235 245 245 239 236 236 236 236 232 222 208 211 207 204 201 199 197 195 191 189 185 183 179 176 173 171 170 167 163 159 156 153 148 141 133 122 112 100 88 73 59
234 233 232 232 233 231 230 235 239 241 247 250 237 231 231 229 219 206 207 211 206 207 206 203 203 203 200 196 192 188 186 184 180 177 176 174 171 169 165 162 159 154 147 138 124 106 84 60 43
233 232 234 234 237 233 234 235 238 240 246 247 241 235 232 227 218 215 214 212 208 207 207 209 211 209 207 205 201 198 195 191 190 186 185 183 180 179 178 175 173 170 165 159 150 126 74 36 19
229 232 236 237 239 240 235 235 236 235 245 242 249 236 237 229 224 218 215 214 214 215 213 214 214 214 213 211 208 205 202 199 197 196 194 192 190 190 190 189 188 187 186 186 188 206 308 337 345
229 233 236 238 238 244 239 238 239 240 241 247 239 233 239 241 224 223 220 219 219 220 220 219 219 218 217 215 212 211 208 206 204 203 202 200 199 200 201 200 201 202 205 210 219 241 280 311 327
229 234 237 237 236 240 239 240 238 241 239 243 243 245 245 237 227 224 224 225 223 224 224 224 223 222 220 218 217 215 214 212 211 210 210 208 208 208 209 211 212 215 219 227 238 251 270 294 311
230 234 238 240 241 245 244 244 244 242 243 241 245 250 247 236 230 230 228 229 229 228 228 228 228 225 224 222 221 221 219 219 218 217 215 215 214 214 216 218 220 223 228 235 244 255 268 283 298
235 240 241 244 245 246 245 245 243 241 243 235 243 246 246 241 230 232 233 231 231 229 230 230 231 230 228 227 226 225 224 223 222 222 220 220 219 220 221 223 226 229 234 242 249 259 269 278 287
241 243 244 248 249 250 248 248 245 240 241 239 243 245 248 242 237 235 235 235 234 232 233 232 232 232 231 232 230 230 229 227 226 225 224 224 224 225 226 228 231 234 238 245 253 261 267 271 279
242 249 251 253 255 253 253 249 249 246 245 244 243 245 245 245 240 240 239 237 234 235 235 236 236 235 235 234 233 232 231 231 229 229 228 227 228 228 229 231 234 236 241 247 254 260 262 267 273
245 250 255 255 256 254 252 249 243 245 244 245 242 243 242 244 240 240 240 238 238 239 239 238 237 236 235 236 235 235 234 233 231 231 230 230 230 231 231 234 237 239 244 248 253 258 261 263 269
253 256 261 257 257 254 252 253 246 249 248 247 244 243 241 243 240 240 239 237 237 240 239 237 234 235 235 236 236 236 236 233 232 233 232 232 232 233 234 239 239 242 244 248 251 255 260 263 268
259 258 259 259 261 257 249 252 254 253 249 247 246 242 240 243 241 239 238 239 241 238 237 237 236 234 235 237 237 239 243 232 235 233 233 233 233 235 237 238 239 242 245 249 252 256 258 263 267
262 257 260 266 265 260 250 256 253 258 252 250 249 247 246 244 243 242 240 240 240 239 239 237 237 236 235 237 241 240 240 240 238 237 235 234 235 237 238 239 240 246 244 248 252 257 258 262 267
259 263 263 264 263 260 261 261 260 259 253 251 250 250 249 247 245 242 242 242 240 239 239 239 237 237 237 240 241 240 240 241 240 238 237 236 237 238 241 242 242 243 248 248 252 253 259 261 266
259 262 264 268 271 265 263 264 262 260 258 257 254 253 253 251 248 244 242 242 241 240 239 239 239 238 236 238 236 240 241 240 239 239 238 238 237 239 241 245 244 243 247 250 249 254 256 260 264
264 270 272 273 273 264 267 263 260 260 259 257 256 257 256 256 253 246 244 242 241 241 241 240 240 237 238 238 241 243 242 242 241 240 239 240 241 242 244 245 247 245 246 247 246 250 253 260 264
269 270 276 274 281 277 274 269 266 263 262 261 260 256 256 256 253 247 246 244 241 241 241 241 240 239 238 239 242 244 243 243 241 240 240 240 243 243 243 244 245 247 247 247 246 246 249 257 262
275 275 278 282 287 279 277 278 271 268 264 263 261 258 257 257 253 248 246 243 241 241 241 240 239 238 238 239 239 239 241 243 243 242 241 242 243 244 246 246 246 244 245 244 245 247 252 253 258
277 286 285 284 282 282 274 277 279 274 269 264 264 260 258 256 251 248 246 245 242 239 237 236 234 235 235 236 238 239 242 244 244 242 242 243 245 248 247 247 246 245 245 251 249 250 255 254 262
285 288 287 288 281 276 278 268 276 275 273 270 265 261 259 256 253 249 247 245 242 238 237 237 236 235 235 236 237 239 241 243 244 244 245 245 246 247 247 247 248 247 249 249 254 254 255 260 263
289 295 293 289 285 281 282 272 269 274 271 270 270 269 263 260 256 252 248 243 241 239 238 236 235 235 235 236 237 239 240 241 243 244 245 245 246 246 246 248 250 251 250 251 255 257 259 262 265
290 285 282 286 286 289 289 273 272 277 275 271 267 265 261 263 260 257 252 244 240 239 237 234 233 234 234 235 236 238 240 242 244 245 247 247 246 247 247 249 250 250 250 252 254 257 260 264 266
294 289 290 288 284 286 283 284 279 277 286 282 260 268 268 265 268 265 255 244 240 238 236 233 232 232 231 231 234 237 241 243 246 247 248 247 247 246 246 247 248 248 251 252 253 256 260 261 266
291 292 295 293 291 284 284 287 277 280 283 285 273 269 269 276 274 275 263 246 239 237 235 231 228 226 225 228 233 238 241 244 247 248 247 245 244 244 243 244 246 246 248 251 253 257 260 261 264
294 295 295 292 285 288 296 286 285 272 282 274 271 272 272 273 276 270 265 248 239 233 225 219 222 223 224 228 233 235 239 243 244 244 243 242 242 242 242 243 245 246 248 249 252 256 258 260 263
291 289 285 287 289 286 284 273 271 275 282 282 280 280 280 278 271 268 261 249 239 227 219 219 220 223 226 230 232 233 235 239 240 242 242 241 242 242 241 243 244 247 249 251 253 256 258 261 264